Weather Roundup
Issued by NWS Corpus Christi, TX

Home | Current Version | Previous Version | Text Only | Print | Product List | Glossary On
Versions: 1 2 3 4 5 6 7 8 9 10 11 12 13 14 15 16 17 18 19 20 21 22 23 24 25 26 27 28 29 30 31 32 33 34 35 36 37 38 39 40 41 42 43 44 45 46 47 48 49 50
000
ASUS44 KCRP 022210
HRRCRP

SOUTH TEXAS REGIONAL WEATHER ROUNDUP
NATIONAL WEATHER SERVICE CORPUS CHRISTI TX
500 PM CDT THU JUL 02 2015


TXZ229>244-022300-
...CORPUS CHRISTI AREA OBSERVATIONS...

CITY           SKY/WX    TMP DP  RH WIND       PRES   REMARKS
CORPUS CHRISTI PTSUNNY   87  75  67 S18G25    29.97F HX  96
NAS CORPUS CHR MOSUNNY   86  78  77 SE17      29.98S HX  98
ROCKPORT       LGT RAIN  88  76  67 SE15G22   29.97F HX  99
KINGSVILLE NAS PTSUNNY   88  77  69 SE14      29.97F HX 100
ALICE          MOSUNNY   88  75  65 SE16      29.96F HX  97
FALFURRIAS     NOT AVBL
$$

...VICTORIA AREA OBSERVATIONS...

CITY           SKY/WX    TMP DP  RH WIND       PRES   REMARKS
VICTORIA       PTSUNNY   88  75  65 S17       30.00F HX  97
BEEVILLE       FAIR      83  77  80 SE13      29.98S HX  93
PLEASANTON     PTSUNNY   83  73  72 SE13      29.97F
SAN ANTONIO    PTSUNNY   90  71  53 SE23G30   29.97F HX  96
$$

...LAREDO AREA OBSERVATIONS...

CITY           SKY/WX    TMP DP  RH WIND       PRES   REMARKS
LAREDO         MOSUNNY   94  65  38 S23G30    29.91F HX  96
COTULLA        LGT RAIN  91  71  51 SE18G28   29.92S HX  97
DEL RIO        MOSUNNY   89  67  47 SE16G26   29.90F HX  92
MCALLEN        MOSUNNY   93  69  45 SE15      29.95F HX  98
HEBBRONVILLE     N/A     88  68  52 SE17G25   29.95F HX  91
$$

...OTHER TEXAS OBSERVATIONS...

CITY           SKY/WX    TMP DP  RH WIND       PRES   REMARKS
BROWNSVILLE    SUNNY     88  73  61 SE13      29.97S HX  95
HOUSTON        PTSUNNY   90  72  55 S16       30.00F HX  97
COL. STATION   SUNNY     90  70  51 S15       29.98F HX  95
AUSTIN         MOSUNNY   87  72  60 S18       29.96F HX  93
WACO           MOSUNNY   90  70  51 S17       29.96F HX  95
FORT WORTH     PTSUNNY   91  66  43 SW20      29.92F HX  93
WICHITA FALLS  PTSUNNY   93  68  43 S13       29.89F HX  97
LUBBOCK        PTSUNNY   90  62  39 E16G25    29.98S HX  90
EL PASO        PTSUNNY   99  49  18 VRB3      29.92F HX  96
$$

...MARINE OBSERVATIONS...

STATION/POSITION TIME  SKY/WX   TEMP    WIND        PRES    VSBY  WAVE   SWELL
                                AIR SEA DIR/SP/G                  HT/PER HT/PER
                 (UTC)          (F)     (DEG/KT/KT) (MB)    (MI)  (FT/S) (FT/S)
PORT ARANSAS     2100            83 81  130/ 12/ 14 1016.2F
BUOY 90 E PORT A NOT AVBL
BUOY 45 SE BAFFI 2150            84 84  150/ 16/ 17 1014.8F         4/ 8   2/ 8
BUOY 200 E PT IS 2150            85 84  130/ 16/ 17 1016.0F         3/ 6   2/14
BUOY 15 E GALVES 2150            84 84  170/ 12/ 14 1016.2F         3/ 6   2/ 7
$$


USA.gov is the U.S. government's official web portal to all federal, state and local government web resources and services.